When you browse on this site, cookies collect data to enhance your experience and personalize the content and advertising you see.
Visit our Privacy Policy to learn more. By continuing to use the site, you agree to this use of cookies and data.
  • In Deutschland
  • Länderverzeichnis
  • Für 7 Tage
  • Wassertemperatur
  • Wetterkarte
  • Widgets
  • user-avatar
    Anmelden

    Stündliche Wetter Belmopan

    Heute, 17 Januar, Freitag

    Zeit Temperatur Niederschläge Wind Luftdruck Luftfeuchtigkeit
    00:00 +21°C° 0 mm 0 m/S 755 mmHg 98%
    01:00 +21°C° 0.6 mm 0 m/S 755 mmHg 99%
    02:00 +21°C° 0.6 mm 0 m/S 754 mmHg 99%
    03:00 +21°C° 0.6 mm 0 m/S 754 mmHg 99%
    04:00 +21°C° 0.4 mm 0 m/S 754 mmHg 99%
    05:00 +21°C° 0.4 mm 0 m/S 755 mmHg 99%
    06:00 +21°C° 0.4 mm 0 m/S 755 mmHg 99%
    07:00 +21°C° 0.2 mm 0 m/S 755 mmHg 98%
    08:00 +22°C° 0.2 mm 0 m/S 756 mmHg 97%
    09:00 +23°C° 0.2 mm 0 m/S 756 mmHg 95%
    10:00 +26°C° 0.8 mm 1 m/S 756 mmHg 95%
    11:00 +26°C° 0.8 mm 2 m/S 756 mmHg 95%
    12:00 +27°C° 0.8 mm 2 m/S 756 mmHg 94%
    13:00 +27°C° 0.9 mm 2 m/S 755 mmHg 94%
    14:00 +27°C° 0.9 mm 2 m/S 754 mmHg 94%
    15:00 +27°C° 0.9 mm 2 m/S 754 mmHg 93%
    16:00 +26°C° 0.6 mm 1 m/S 754 mmHg 95%
    17:00 +25°C° 0.6 mm 1 m/S 754 mmHg 96%
    18:00 +24°C° 0.6 mm 1 m/S 754 mmHg 98%
    19:00 +24°C° 0.5 mm 1 m/S 754 mmHg 98%
    20:00 +22°C° 0.5 mm 0 m/S 755 mmHg 98%
    21:00 +21°C° 0.5 mm 0 m/S 755 mmHg 99%
    22:00 +21°C° 0.3 mm 0 m/S 755 mmHg 99%
    23:00 +21°C° 0.3 mm 0 m/S 755 mmHg 99%

    Morgen, 18 Januar, Samstag

    Zeit Temperatur Niederschläge Wind Luftdruck Luftfeuchtigkeit
    00:00 +21°C° 0.3 mm 0 m/S 754 mmHg 99%
    01:00 +21°C° 0.1 mm 0 m/S 754 mmHg 99%
    02:00 +21°C° 0.1 mm 0 m/S 754 mmHg 99%
    03:00 +21°C° 0.1 mm 0 m/S 754 mmHg 99%
    04:00 +21°C° 0.1 mm 0 m/S 754 mmHg 99%
    05:00 +21°C° 0.1 mm 0 m/S 754 mmHg 99%
    06:00 +21°C° 0.1 mm 0 m/S 754 mmHg 99%
    07:00 +22°C° 0.1 mm 0 m/S 755 mmHg 97%
    08:00 +24°C° 0.1 mm 1 m/S 755 mmHg 95%
    09:00 +25°C° 0.1 mm 1 m/S 756 mmHg 93%
    10:00 +26°C° 0.7 mm 1 m/S 756 mmHg 91%
    11:00 +27°C° 0.7 mm 2 m/S 755 mmHg 89%
    12:00 +27°C° 0.7 mm 2 m/S 755 mmHg 87%
    13:00 +27°C° 0.5 mm 2 m/S 754 mmHg 85%
    14:00 +27°C° 0.5 mm 2 m/S 754 mmHg 83%
    15:00 +27°C° 0.5 mm 2 m/S 753 mmHg 81%
    16:00 +26°C° 0.1 mm 2 m/S 753 mmHg 86%
    17:00 +25°C° 0.1 mm 1 m/S 753 mmHg 91%
    18:00 +24°C° 0.1 mm 1 m/S 754 mmHg 96%
    19:00 +23°C° 0 mm 1 m/S 754 mmHg 97%
    20:00 +21°C° 0 mm 0 m/S 754 mmHg 98%
    21:00 +21°C° 0 mm 0 m/S 754 mmHg 99%
    22:00 +21°C° 0.1 mm 0 m/S 754 mmHg 99%
    23:00 +21°C° 0.1 mm 0 m/S 754 mmHg 99%

    übermorgen, 19 Januar, Sonntag

    Zeit Temperatur Niederschläge Wind Luftdruck Luftfeuchtigkeit
    00:00 +21°C° 0.1 mm 0 m/S 754 mmHg 99%
    01:00 +21°C° 0.2 mm 0 m/S 754 mmHg 99%
    02:00 +21°C° 0.2 mm 0 m/S 753 mmHg 99%
    03:00 +21°C° 0.2 mm 0 m/S 753 mmHg 99%
    04:00 +21°C° 0 mm 0 m/S 753 mmHg 99%
    05:00 +21°C° 0 mm 0 m/S 753 mmHg 98%
    06:00 +20°C° 0 mm 0 m/S 754 mmHg 98%
    07:00 +22°C° 0.1 mm 0 m/S 754 mmHg 96%
    08:00 +23°C° 0.1 mm 0 m/S 755 mmHg 94%
    09:00 +24°C° 0.1 mm 0 m/S 755 mmHg 92%
    10:00 +26°C° 1 mm 1 m/S 755 mmHg 90%
    11:00 +27°C° 1 mm 1 m/S 755 mmHg 89%
    12:00 +28°C° 1 mm 1 m/S 754 mmHg 88%
    13:00 +27°C° 1.1 mm 1 m/S 754 mmHg 89%
    14:00 +27°C° 1.1 mm 1 m/S 753 mmHg 90%
    15:00 +27°C° 1.1 mm 1 m/S 753 mmHg 91%
    16:00 +26°C° 0.3 mm 1 m/S 753 mmHg 93%
    17:00 +23°C° 0.3 mm 0 m/S 753 mmHg 95%
    18:00 +22°C° 0.3 mm 0 m/S 754 mmHg 96%
    19:00 +22°C° 0.1 mm 0 m/S 754 mmHg 97%
    20:00 +21°C° 0.1 mm 0 m/S 755 mmHg 97%
    21:00 +21°C° 0.1 mm 0 m/S 755 mmHg 98%
    22:00 +21°C° 0 mm 0 m/S 755 mmHg 98%
    23:00 +21°C° 0 mm 0 m/S 755 mmHg 98%

    20 Januar, Montag

    Zeit Temperatur Niederschläge Wind Luftdruck Luftfeuchtigkeit
    00:00 +20°C° 0 mm 0 m/S 755 mmHg 98%
    01:00 +20°C° 0 mm 0 m/S 755 mmHg 98%
    02:00 +20°C° 0 mm 0 m/S 754 mmHg 98%
    03:00 +22°C° 0 mm 1 m/S 754 mmHg 98%
    04:00 +22°C° 0 mm 1 m/S 755 mmHg 98%
    05:00 +21°C° 0 mm 1 m/S 755 mmHg 99%
    06:00 +21°C° 0 mm 1 m/S 755 mmHg 99%
    07:00 +22°C° 0 mm 1 m/S 756 mmHg 95%
    08:00 +24°C° 0 mm 1 m/S 756 mmHg 92%
    09:00 +25°C° 0 mm 1 m/S 757 mmHg 89%
    10:00 +26°C° 0 mm 1 m/S 756 mmHg 80%
    11:00 +28°C° 0 mm 1 m/S 756 mmHg 70%
    12:00 +30°C° 0 mm 1 m/S 756 mmHg 61%
    13:00 +30°C° 0.1 mm 1 m/S 755 mmHg 59%
    14:00 +30°C° 0.1 mm 1 m/S 755 mmHg 57%
    15:00 +31°C° 0.1 mm 2 m/S 754 mmHg 55%
    16:00 +29°C° 0.1 mm 1 m/S 754 mmHg 66%
    17:00 +26°C° 0.1 mm 1 m/S 754 mmHg 77%
    18:00 +22°C° 0.1 mm 0 m/S 754 mmHg 87%
    19:00 +22°C° 0 mm 0 m/S 755 mmHg 89%
    20:00 +21°C° 0 mm 0 m/S 755 mmHg 92%
    21:00 +20°C° 0 mm 0 m/S 756 mmHg 94%
    22:00 +22°C° 0.1 mm 1 m/S 756 mmHg 95%
    23:00 +22°C° 0.1 mm 1 m/S 756 mmHg 95%

    21 Januar, Dienstag

    Zeit Temperatur Niederschläge Wind Luftdruck Luftfeuchtigkeit
    00:00 +22°C° 0.1 mm 1 m/S 755 mmHg 95%
    01:00 +21°C° 0 mm 1 m/S 755 mmHg 96%
    02:00 +21°C° 0 mm 1 m/S 755 mmHg 97%
    03:00 +21°C° 0 mm 1 m/S 755 mmHg 98%
    04:00 +21°C° 0 mm 1 m/S 755 mmHg 98%
    05:00 +21°C° 0 mm 1 m/S 755 mmHg 98%
    06:00 +21°C° 0 mm 1 m/S 756 mmHg 98%
    07:00 +21°C° 0 mm 1 m/S 756 mmHg 96%
    08:00 +22°C° 0 mm 1 m/S 757 mmHg 94%
    09:00 +22°C° 0 mm 1 m/S 757 mmHg 92%
    10:00 +23°C° 0.1 mm 1 m/S 757 mmHg 88%
    11:00 +24°C° 0.1 mm 1 m/S 757 mmHg 85%
    12:00 +24°C° 0.1 mm 1 m/S 756 mmHg 81%
    13:00 +25°C° 0.1 mm 1 m/S 756 mmHg 78%
    14:00 +25°C° 0.1 mm 1 m/S 755 mmHg 75%
    15:00 +26°C° 0.1 mm 1 m/S 755 mmHg 72%
    16:00 +25°C° 0.2 mm 1 m/S 755 mmHg 79%
    17:00 +21°C° 0.2 mm 0 m/S 755 mmHg 86%
    18:00 +20°C° 0.2 mm 0 m/S 755 mmHg 93%
    19:00 +20°C° 0 mm 0 m/S 755 mmHg 95%
    20:00 +19°C° 0 mm 0 m/S 755 mmHg 96%
    21:00 +19°C° 0 mm 0 m/S 756 mmHg 97%
    22:00 +19°C° 0 mm 0 m/S 756 mmHg 97%
    23:00 +18°C° 0 mm 0 m/S 756 mmHg 98%

    22 Januar, Mittwoch

    Zeit Temperatur Niederschläge Wind Luftdruck Luftfeuchtigkeit
    00:00 +18°C° 0 mm 0 m/S 755 mmHg 98%
    01:00 +18°C° 0 mm 0 m/S 755 mmHg 98%
    02:00 +17°C° 0 mm 0 m/S 755 mmHg 98%
    03:00 +17°C° 0 mm 0 m/S 754 mmHg 99%
    04:00 +17°C° 0 mm 0 m/S 754 mmHg 98%
    05:00 +17°C° 0 mm 0 m/S 754 mmHg 98%
    06:00 +17°C° 0 mm 0 m/S 754 mmHg 98%
    07:00 +18°C° 0 mm 0 m/S 755 mmHg 94%
    08:00 +20°C° 0 mm 0 m/S 755 mmHg 89%
    09:00 +23°C° 0 mm 1 m/S 756 mmHg 84%
    10:00 +24°C° 0 mm 1 m/S 755 mmHg 79%
    11:00 +25°C° 0 mm 1 m/S 755 mmHg 74%
    12:00 +26°C° 0 mm 1 m/S 754 mmHg 69%
    13:00 +27°C° 0 mm 2 m/S 754 mmHg 67%
    14:00 +27°C° 0 mm 2 m/S 753 mmHg 66%
    15:00 +27°C° 0 mm 2 m/S 752 mmHg 64%
    16:00 +26°C° 0 mm 2 m/S 752 mmHg 72%
    17:00 +24°C° 0 mm 2 m/S 752 mmHg 79%
    18:00 +23°C° 0 mm 1 m/S 752 mmHg 87%
    19:00 +22°C° 0 mm 1 m/S 753 mmHg 88%
    20:00 +22°C° 0 mm 1 m/S 753 mmHg 90%
    21:00 +22°C° 0 mm 1 m/S 754 mmHg 92%
    22:00 +22°C° 0 mm 1 m/S 753 mmHg 91%
    23:00 +22°C° 0 mm 1 m/S 753 mmHg 89%
    Mehr zeigen